Home   Weather   Bloomington   Past weeks

Flag for USA Past Weather in Bloomington, Indiana, USA — Yesterday and Last 2 Weeks

Now
61 °F

Scattered clouds.


Feels Like: 61 °F
Forecast: 46 / 73 °F
Wind: 9 mph from Southeast

Location: Monroe County Airport

Current Time: Apr 28, 2017 at 3:59:38 pm

Latest Report: Apr 28, 2017 at 2:53 pm


Visibility: 10 mi

Pressure: 29.91 "Hg

Humidity: 70%

Dew Point: 51 °F

Location of BloomingtonLocation

Past Weather in Bloomington — Graph

°F

Bloomington Temperature Yesterday

Maximum temperature yesterday: 68 °F (at 12:08 am)
Minimum temperature yesterday: 45 °F (at 10:53 pm)
Average temperature yesterday: 56 °F

High & Low Weather Summary for the Past Weeks

 TemperatureHumidityPressure
High84 °F (Apr 26, 2:53 pm)91% (Apr 19, 7:53 am)30.24 "Hg (Apr 19, 7:53 am)
Low43 °F (Apr 23, 4:53 am)20% (Apr 24, 1:53 pm)29.46 "Hg (Apr 27, 4:53 am)
Average64 °F59%29.96 "Hg
* Reported Apr 13 1:53 pm — Apr 28 1:53 pm, Bloomington, Weather by CustomWeather, © 2017

Note: Actual official high and low records may vary slightly from our data, if they occured in-between our weather recording intervals... More about our weather records

Advertising

Bloomington Weather History for the Previous 24 Hours

Scroll right to see more
 ConditionsComfort  
Time TempWeatherWind HumidityBarometerVisibility
1:53 pm
Fri, Apr 28
57 °FScattered clouds.12 mph74%29.93 "Hg10 mi
12:53 pm55 °FMostly cloudy.10 mph74%29.97 "Hg10 mi
11:53 am54 °FPartly sunny.8 mph77%29.98 "Hg10 mi
10:53 am53 °FPassing clouds.9 mph77%29.96 "Hg10 mi
9:53 am51 °FOvercast.10 mph80%29.97 "Hg10 mi
8:53 am50 °FPartly sunny.9 mph80%29.95 "Hg10 mi
7:53 am47 °FScattered clouds.3 mph90%29.99 "Hg9 mi
6:53 am47 °FScattered clouds.7 mph90%29.95 "Hg10 mi
5:53 am47 °FPassing clouds.6 mph90%29.91 "Hg10 mi
4:53 am44 °FClear.3 mph89%29.91 "Hg9 mi
3:53 am44 °FClear.No wind89%29.92 "Hg10 mi
2:53 am44 °FClear.No wind89%29.94 "Hg10 mi
1:53 am44 °FClear.No wind89%29.94 "Hg9 mi
12:53 am44 °FPassing clouds.No wind89%29.92 "Hg9 mi
12:35 am45 °FPassing clouds.No wind90%29.91 "Hg10 mi
11:53 pm
Thu, Apr 27
45 °FPassing clouds.No wind90%29.90 "Hg10 mi
10:53 pm45 °FClear.No wind86%29.89 "Hg10 mi
9:53 pm48 °FClear.No wind83%29.87 "Hg10 mi
8:53 pm51 °FClear.3 mph74%29.83 "Hg10 mi
7:53 pm55 °FOvercast.9 mph67%29.81 "Hg10 mi
6:53 pm56 °FPartly sunny.10 mph65%29.81 "Hg10 mi
5:53 pm57 °FMore clouds than sun.8 mph62%29.79 "Hg10 mi
5:00 pm58 °FMore clouds than sun.9 mph65%29.77 "Hg10 mi
4:26 pm55 °FMostly cloudy.10 mph69%29.78 "Hg10 mi
4:14 pm56 °FMore clouds than sun.13 mph67%29.78 "Hg10 mi
3:53 pm55 °FMostly cloudy.12 mph69%29.77 "Hg10 mi
Weather by CustomWeather, © 2017

See weather overviewHow to use our weather pages